Regional Weather Roundup
Issued by NWS Memphis, TN

Home | Current Version | Previous Version | Text Only | Print | Product List | Glossary On
Versions: 1 2 3 4 5 6 7 8 9 10 11 12 13 14 15 16 17 18 19 20 21 22 23 24 25 26 27 28 29 30 31 32 33 34 35 36 37 38 39 40 41 42 43 44 45 46 47 48 49 50
000
ASUS44 KMEG 241810
RWRMEG
MEMPHIS CWA HOURLY WEATHER ROUNDUP
NATIONAL WEATHER SERVICE MEMPHIS TN
100 PM CDT FRI MAR 24 2017

...WEST TENNESSEE...

CITY           SKY/WX    TMP DP  RH WIND       PRES   REMARKS
MEMPHIS INTL   CLOUDY    74  58  57 S18G29    30.16F
6HR MIN TEMP:  66; 6HR MAX TEMP:  75;

NWS MEMPHIS      N/A     74 N/A N/A MISG        N/A
JACKSON        CLOUDY    71  56  58 S14G21    30.21F
6HR MIN TEMP:  63; 6HR MAX TEMP:  73;

SOMERVILLE     PTSUNNY   73  59  60 S9G18     30.18F
BOLIVAR        CLOUDY    70  57  64 SE13G24   30.21S
SAVANNAH       CLOUDY    70  55  60 S13G22    30.24F
DYERSBURG      CLOUDY    71  59  65 S10G24    30.18F
PARIS          CLOUDY    70  55  60 S20       30.21F
HUNTINGDON     CLOUDY    73  55  53 S16G25    30.20F


...EASTERN ARKANSAS...

CITY           SKY/WX    TMP DP  RH WIND       PRES   REMARKS
JONESBORO      PTSUNNY   73  59  61 S22G33    30.11F
6HR MIN TEMP:  62; 6HR MAX TEMP:  74;

WEST MEMPHIS   PTSUNNY   75  61  61 S20G31    30.14F
6HR MIN TEMP:  65; 6HR MAX TEMP:  76;

BATESVILLE     CLOUDY    73  57  56 S18G28    30.07F
6HR MIN TEMP:  64; 6HR MAX TEMP:  73;

NEWPORT        CLOUDY    75  60  59 MISG        N/A
6HR MIN TEMP:  63; 6HR MAX TEMP:  75;

WALNUT RIDGE   CLOUDY    73  59  60 S30G37    30.08F
6HR MIN TEMP:  61; 6HR MAX TEMP:  73;

BLYTHEVILLE    PTSUNNY   74  62  66 S14       30.15F
6HR MIN TEMP:  64; 6HR MAX TEMP:  74;

SEARCY         CLOUDY    73  62  68 S20G26    30.08F
6HR MIN TEMP:  64; 6HR MAX TEMP:  75;

STUTTGART      PTSUNNY   75  55  50 S22G31    30.12F
6HR MIN TEMP:  64; 6HR MAX TEMP:  75;

PINE BLUFF     CLOUDY    74  60  61 S17       30.11F
6HR MIN TEMP:  66; 6HR MAX TEMP:  74;

MONTICELLO     CLOUDY    75  61  61 S15G24    30.13F
6HR MIN TEMP:  66; 6HR MAX TEMP:  77;



...NORTH MISSISSIPPI...

CITY           SKY/WX    TMP DP  RH WIND       PRES   REMARKS
TUPELO         CLOUDY    70  56  61 SE17G28   30.25S
6HR MIN TEMP:  65; 6HR MAX TEMP:  70;

OXFORD         PTSUNNY   72  57  60 SE14      30.22F
BATESVILLE     PTSUNNY   74  58  56 S13G18    30.19F
6HR MIN TEMP:  66; 6HR MAX TEMP:  75;

OLIVE BRANCH   PTSUNNY  N/A N/A N/A S14G23    30.16F
TUNICA         PTSUNNY   75  59  57 S23       30.16F
CLARKSDALE     PTSUNNY   75  61  60 S17G28    30.16F
GREENWOOD      CLOUDY    76  59  55 S17       30.17F
6HR MIN TEMP:  67; 6HR MAX TEMP:  78;

COLUMBUS       CLOUDY    72  58  62 S10       30.24F
6HR MIN TEMP:  65; 6HR MAX TEMP:  74;

STARKVILLE     CLOUDY    72  59  64 S13G20    30.26F
GOLDEN TRIANGL CLOUDY    70  55  60 S12G18    30.22S


...SOUTHEAST MISSOURI...

CITY           SKY/WX    TMP DP  RH WIND       PRES   REMARKS
KENNETT        CLOUDY    73  61  64 S16G26    30.12F HAZE
MALDEN         PTSUNNY   73  59  60 S29G35    30.12F
WEST PLAINS    PTSUNNY   70  54  56 S18G28    30.04F
6HR MIN TEMP:  60; 6HR MAX TEMP:  70;

POPLAR BLUFF   CLOUDY    72  59  63 S22G32    30.09F
6HR MIN TEMP:  63; 6HR MAX TEMP:  73;

CAPE GIRARDEAU PTSUNNY   71  59  65 S17G37    30.11F
6HR MIN TEMP:  61; 6HR MAX TEMP:  71;



...NORTHWEST ALABAMA...

CITY           SKY/WX    TMP DP  RH WIND       PRES   REMARKS
MUSCLE SHOALS  PTSUNNY   75  53  46 S13G22    30.27F
6HR MIN TEMP:  63; 6HR MAX TEMP:  75;



...MIDDLE TENNESSEE...

CITY           SKY/WX    TMP DP  RH WIND       PRES   REMARKS
NASHVILLE      PTSUNNY   74  53  48 S18G25    30.25F
6HR MIN TEMP:  61; 6HR MAX TEMP:  75;

CLARKSVILLE    CLOUDY    74  54  49 S20G28    30.21F
6HR MIN TEMP:  60; 6HR MAX TEMP:  74;

COLUMBIA       MOSUNNY   73  55  53 S17       30.24F


...WESTERN KENTUCKY...

CITY           SKY/WX    TMP DP  RH WIND       PRES   REMARKS
PADUCAH        CLOUDY    72  56  57 S15G31    30.14F
6HR MIN TEMP:  63; 6HR MAX TEMP:  73;

FORT CAMPBELL  CLOUDY    74  55  50 S16       30.19F
6HR MIN TEMP:  60; 6HR MAX TEMP:  75;



...CENTRAL ARKANSAS...

CITY           SKY/WX    TMP DP  RH WIND       PRES   REMARKS
LITTLE ROCK    CLOUDY    73  60  63 S18G31    30.06F
6HR MIN TEMP:  65; 6HR MAX TEMP:  74;



SKY/WX REPORTED AS FAIR MEANS FEW OR NO CLOUDS BELOW
12 THOUSAND FEET.





USA.gov is the U.S. government's official web portal to all federal, state and local government web resources and services.